This demonstration page uses our WeatherBlox Daily Observations layout. Learn more.

Hourly Observations for March 10, 2020

Temp ( °F °C ) Dew Point ( °F °C ) Humidity (%) Winds ( mph kmh ) Pressure ( in mb ) Visibility ( mi km ) Precip ( " mm )
12:15 am 00:15 Clear 59 15 34 1 39 39 S 6 9 30.29 1026 10 16.0934 0 0
12:35 am 00:35 Clear 59 15 34 1 39 39 SW 6 9 30.28 1025 10 16.0934 0 0
12:55 am 00:55 Clear 59 15 36 2 42 42 SW 6 9 30.28 1025 10 16.0934 0 0
1:15 am 01:15 Clear 59 15 36 2 42 42 SW 6 9 30.28 1025 10 16.0934 0 0
1:35 am 01:35 Clear 57 14 36 2 44 44 SW 7 11 30.27 1025 10 16.0934 0 0
1:55 am 01:55 Clear 57 14 37 3 48 48 SW 6 9 30.26 1025 10 16.0934 0 0
2:15 am 02:15 Clear 55 13 37 3 51 51 SSW 7 11 30.26 1025 10 16.0934 0 0
2:35 am 02:35 Clear 55 13 36 2 47 47 S 6 9 30.25 1024 10 16.0934 0 0
2:55 am 02:55 Clear 54 12 37 3 54 54 SSW 6 9 30.24 1024 10 16.0934 0 0
3:15 am 03:15 Clear 55 13 39 4 55 55 SW 6 9 30.24 1024 10 16.0934 0 0
3:35 am 03:35 Clear 54 12 39 4 58 58 SSW 6 9 30.23 1024 10 16.0934 0 0
3:55 am 03:55 Clear 54 12 41 5 63 63 SW 5 7 30.23 1024 10 16.0934 0 0
4:15 am 04:15 Clear 54 12 41 5 63 63 WSW 5 7 30.22 1023 10 16.0934 0 0
4:35 am 04:35 Clear 55 13 41 5 59 59 SW 7 11 30.21 1023 10 16.0934 0 0
4:55 am 04:55 Clear 54 12 41 5 63 63 SSW 6 9 30.21 1023 10 16.0934 0 0
5:15 am 05:15 Clear 54 12 43 6 67 67 SW 7 11 30.21 1023 10 16.0934 0 0
5:35 am 05:35 Clear 55 13 43 6 63 63 SW 5 7 30.21 1023 10 16.0934 0 0
5:55 am 05:55 Clear 54 12 43 6 67 67 SSW 6 9 30.21 1023 10 16.0934 0 0
6:15 am 06:15 Mostly Cloudy 54 12 43 6 67 67 SSW 5 7 30.2 1023 10 16.0934 0 0
6:35 am 06:35 Cloudy 54 12 43 6 67 67 SW 5 7 30.21 1023 10 16.0934 0 0
6:55 am 06:55 Cloudy 54 12 45 7 72 72 SSW 3 6 30.21 1023 10 16.0934 0 0
7:15 am 07:15 Cloudy 54 12 46 8 77 77 S 9 15 30.2 1023 10 16.0934 0 0
7:35 am 07:35 Cloudy 54 12 46 8 77 77 S 10 17 30.19 1022 10 16.0934 0 0
7:55 am 07:55 Mostly Cloudy 54 12 46 8 77 77 SSW 9 15 30.2 1023 10 16.0934 0 0
8:15 am 08:15 Mostly Cloudy 54 12 46 8 77 77 S 9 15 30.2 1023 10 16.0934 0 0
8:35 am 08:35 Cloudy 54 12 46 8 77 77 S 9 15 30.19 1022 10 16.0934 0 0
8:55 am 08:55 Cloudy 54 12 46 8 77 77 SSW 10 17 30.19 1022 10 16.0934 0 0
9:15 am 09:15 Cloudy 54 12 48 9 82 82 SSW 10 17 30.18 1022 10 16.0934 0 0
9:35 am 09:35 Cloudy 54 12 50 10 88 88 SSW 12 19 30.18 1022 10 16.0934 0 0
9:55 am 09:55 Cloudy 54 12 50 10 88 88 SSW 12 19 30.17 1022 10 16.0934 0 0
10:15 am 10:15 Cloudy 55 13 50 10 82 82 SSW 12 19 30.17 1022 10 16.0934 0 0
10:35 am 10:35 Cloudy 55 13 50 10 82 82 S 10 17 30.16 1021 10 16.0934 0 0
10:55 am 10:55 Cloudy 59 15 50 10 72 72 SSW 16 26 30.15 1021 10 16.0934 0 0
11:15 am 11:15 Cloudy 59 15 50 10 72 72 SSW 14 22 30.13 1020 10 16.0934 0 0
11:35 am 11:35 Cloudy 61 16 50 10 68 68 SSW 12 19 30.13 1020 10 16.0934 0 0
11:55 am 11:55 Cloudy 59 15 52 11 77 77 SSW 12 19 30.13 1020 10 16.0934 0 0
12:15 pm 12:15 Cloudy 59 15 54 12 82 82 S 9 15 30.11 1020 10 16.0934 0.01 0.254
12:35 pm 12:35 Cloudy 61 16 52 11 72 72 SSW 14 22 30.1 1019 10 16.0934 0.01 0.254
12:55 pm 12:55 Cloudy 63 17 52 11 68 68 SSW 12 19 30.1 1019 10 16.0934 0.01 0.254
1:15 pm 13:15 Cloudy 63 17 52 11 68 68 SSW 13 20 30.09 1019 10 16.0934 0 0
1:35 pm 13:35 Partly Cloudy 64 18 52 11 64 64 SSW 15 24 30.07 1018 10 16.0934 0 0
1:55 pm 13:55 Partly Cloudy 68 20 52 11 56 56 S 17 28 30.05 1018 10 16.0934 0 0
2:15 pm 14:15 Partly Cloudy 70 21 52 11 53 53 SSW 13 20 30.03 1017 10 16.0934 0 0
2:35 pm 14:35 Partly Cloudy 72 22 52 11 50 50 SW 16 26 30.01 1016 10 16.0934 0 0
2:55 pm 14:55 Partly Cloudy 70 21 50 10 50 50 WSW 15 24 30 1016 10 16.0934 0 0
3:15 pm 15:15 Mostly Cloudy 70 21 50 10 50 50 WSW 17 28 30 1016 10 16.0934 0 0
3:35 pm 15:35 Cloudy 70 21 50 10 50 50 SW 13 20 29.99 1016 10 16.0934 0 0
3:55 pm 15:55 Cloudy 70 21 50 10 50 50 WSW 14 22 29.99 1016 10 16.0934 0 0
4:15 pm 16:15 Cloudy 70 21 50 10 50 50 WSW 12 19 29.99 1016 10 16.0934 0 0
4:35 pm 16:35 Cloudy 70 21 50 10 50 50 WSW 12 19 29.99 1016 10 16.0934 0 0
4:55 pm 16:55 Cloudy 70 21 52 11 53 53 SW 10 17 29.99 1016 10 16.0934 0 0
5:15 pm 17:15 Cloudy 70 21 52 11 53 53 SW 9 15 29.99 1016 10 16.0934 0 0
5:35 pm 17:35 Cloudy 68 20 52 11 56 56 SW 10 17 29.99 1016 10 16.0934 0 0
5:55 pm 17:55 Cloudy 68 20 52 11 56 56 SW 10 17 29.98 1015 10 16.0934 0 0
6:15 pm 18:15 Cloudy 68 20 52 11 56 56 SSW 9 15 29.99 1016 10 16.0934 0 0
6:35 pm 18:35 Mostly Cloudy 68 20 52 11 56 56 WSW 14 22 29.99 1016 10 16.0934 0 0
6:55 pm 18:55 Mostly Cloudy 68 20 52 11 56 56 WSW 8 13 29.99 1016 10 16.0934 0 0
7:15 pm 19:15 Cloudy 68 20 52 11 56 56 SW 7 11 30 1016 10 16.0934 0 0
7:35 pm 19:35 Cloudy 66 19 52 11 60 60 SW 8 13 30 1016 10 16.0934 0 0
7:55 pm 19:55 Cloudy 66 19 52 11 60 60 SW 8 13 30 1016 10 16.0934 0 0
8:15 pm 20:15 Cloudy 64 18 52 11 64 64 WSW 5 7 30.01 1016 10 16.0934 0 0
8:35 pm 20:35 Cloudy 64 18 52 11 64 64 WSW 5 7 30.01 1016 10 16.0934 0 0
8:55 pm 20:55 Cloudy 64 18 52 11 64 64 W 6 9 30.02 1017 10 16.0934 0 0
9:15 pm 21:15 Cloudy 61 16 55 13 83 83 NW 17 28 30.06 1018 10 16.0934 0 0
9:35 pm 21:35 Cloudy 57 14 55 13 94 94 NW 13 20 30.07 1018 10 16.0934 0 0
9:55 pm 21:55 Partly Cloudy 57 14 55 13 94 94 NNW 13 20 30.08 1019 10 16.0934 0 0
10:15 pm 22:15 Clear 57 14 54 12 88 88 NNW 15 24 30.09 1019 10 16.0934 0 0
10:35 pm 22:35 Clear 57 14 52 11 82 82 NW 14 22 30.1 1019 10 16.0934 0 0
10:55 pm 22:55 Clear 55 13 52 11 88 88 NNW 10 17 30.11 1020 10 16.0934 0 0
11:15 pm 23:15 Clear 55 13 50 10 82 82 NNW 9 15 30.11 1020 10 16.0934 0 0
11:35 pm 23:35 Clear 55 13 50 10 82 82 NNW 14 22 30.12 1020 10 16.0934 0 0
11:55 pm 23:55 Clear 55 13 48 9 77 77 undefined N/A 30.13 1020 10 16.0934 0 0

Powered by AerisWeather